Year,Month,Day,Hour,Minute,Value (Times are PST for temperature in C)
2009,08,15,00,00,13.80
2009,08,15,00,01,13.80
2009,08,15,00,02,13.80
2009,08,15,00,03,13.80
2009,08,15,00,04,13.80
2009,08,15,00,05,13.80
2009,08,15,00,06,13.80
2009,08,15,00,07,13.80
2009,08,15,00,08,13.80
2009,08,15,00,09,13.70
2009,08,15,00,10,13.80
2009,08,15,00,11,13.70
2009,08,15,00,12,13.70
2009,08,15,00,13,13.70
2009,08,15,00,14,13.70
2009,08,15,00,15,13.70
2009,08,15,00,16,13.70
2009,08,15,00,17,13.70
2009,08,15,00,18,13.70
2009,08,15,00,19,13.70
2009,08,15,00,20,13.70
2009,08,15,00,21,13.70
2009,08,15,00,22,13.70
2009,08,15,00,23,13.70
2009,08,15,00,24,13.70
2009,08,15,00,25,13.70
2009,08,15,00,26,13.70
2009,08,15,00,27,13.70
2009,08,15,00,28,13.70
2009,08,15,00,29,13.70
2009,08,15,00,30,13.70
2009,08,15,00,31,13.70
2009,08,15,00,32,13.70
2009,08,15,00,33,13.70
2009,08,15,00,34,13.70
2009,08,15,00,35,13.70
2009,08,15,00,36,13.70
2009,08,15,00,37,13.70
2009,08,15,00,38,13.70
2009,08,15,00,39,13.70
2009,08,15,00,40,13.70
2009,08,15,00,41,13.70
2009,08,15,00,42,13.70
2009,08,15,00,43,13.70
2009,08,15,00,44,13.70
2009,08,15,00,45,13.70
2009,08,15,00,46,13.70
2009,08,15,00,47,13.70
2009,08,15,00,48,13.70
2009,08,15,00,49,13.60
2009,08,15,00,50,13.60
2009,08,15,00,51,13.50
2009,08,15,00,52,13.50
2009,08,15,00,53,13.40
2009,08,15,00,54,13.40
2009,08,15,00,55,13.30
2009,08,15,00,56,13.30
2009,08,15,00,57,13.30
2009,08,15,00,58,13.30
2009,08,15,00,59,13.30
2009,08,15,01,00,13.30
2009,08,15,01,01,13.30
2009,08,15,01,02,13.20
2009,08,15,01,03,13.10
2009,08,15,01,04,13.10
2009,08,15,01,05,13.10
2009,08,15,01,06,13.00
2009,08,15,01,07,13.00
2009,08,15,01,08,13.00
2009,08,15,01,09,13.00
2009,08,15,01,10,13.00
2009,08,15,01,11,12.90
2009,08,15,01,12,12.90
2009,08,15,01,13,12.90
2009,08,15,01,14,12.90
2009,08,15,01,15,12.90
2009,08,15,01,16,12.90
2009,08,15,01,17,12.90
2009,08,15,01,18,12.90
2009,08,15,01,19,12.90
2009,08,15,01,20,12.90
2009,08,15,01,21,12.90
2009,08,15,01,22,12.90
2009,08,15,01,23,12.90
2009,08,15,01,24,12.90
2009,08,15,01,25,12.90
2009,08,15,01,26,12.90
2009,08,15,01,27,12.90
2009,08,15,01,28,12.90
2009,08,15,01,29,13.00
2009,08,15,01,30,13.00
2009,08,15,01,31,13.00
2009,08,15,01,32,13.00
2009,08,15,01,33,13.10
2009,08,15,01,34,13.10
2009,08,15,01,35,13.10
2009,08,15,01,36,13.10
2009,08,15,01,37,13.10
2009,08,15,01,38,13.10
2009,08,15,01,39,13.10
2009,08,15,01,40,13.10
2009,08,15,01,41,13.10
2009,08,15,01,42,13.20
2009,08,15,01,43,13.20
2009,08,15,01,44,13.20
2009,08,15,01,45,13.20
2009,08,15,01,46,13.20
2009,08,15,01,47,13.20
2009,08,15,01,48,13.20
2009,08,15,01,49,13.30
2009,08,15,01,50,13.30
2009,08,15,01,51,13.30
2009,08,15,01,52,13.30
2009,08,15,01,53,13.30
2009,08,15,01,54,13.30
2009,08,15,01,55,13.30
2009,08,15,01,56,13.30
2009,08,15,01,57,13.30
2009,08,15,01,58,13.30
2009,08,15,01,59,13.30
2009,08,15,02,00,13.30
2009,08,15,02,01,13.30
2009,08,15,02,02,13.30
2009,08,15,02,03,13.30
2009,08,15,02,04,13.30
2009,08,15,02,05,13.30
2009,08,15,02,06,13.30
2009,08,15,02,07,13.30
2009,08,15,02,08,13.30
2009,08,15,02,09,13.30
2009,08,15,02,10,13.30
2009,08,15,02,11,13.30
2009,08,15,02,12,13.30
2009,08,15,02,13,13.30
2009,08,15,02,14,13.30
2009,08,15,02,15,13.30
2009,08,15,02,16,13.30
2009,08,15,02,17,13.30
2009,08,15,02,18,13.30
2009,08,15,02,19,13.30
2009,08,15,02,20,13.30
2009,08,15,02,21,13.30
2009,08,15,02,22,13.30
2009,08,15,02,23,13.30
2009,08,15,02,24,13.30
2009,08,15,02,25,13.30
2009,08,15,02,26,13.30
2009,08,15,02,27,13.30
2009,08,15,02,28,13.30
2009,08,15,02,29,13.30
2009,08,15,02,30,13.30
2009,08,15,02,31,13.20
2009,08,15,02,32,13.20
2009,08,15,02,33,13.20
2009,08,15,02,34,13.20
2009,08,15,02,35,13.20
2009,08,15,02,36,13.20
2009,08,15,02,37,13.20
2009,08,15,02,38,13.20
2009,08,15,02,39,13.20
2009,08,15,02,40,13.20
2009,08,15,02,41,13.10
2009,08,15,02,42,13.10
2009,08,15,02,43,13.10
2009,08,15,02,44,13.10
2009,08,15,02,45,13.10
2009,08,15,02,46,13.10
2009,08,15,02,47,13.10
2009,08,15,02,48,13.10
2009,08,15,02,49,13.10
2009,08,15,02,50,13.00
2009,08,15,02,51,13.00
2009,08,15,02,52,13.00
2009,08,15,02,53,13.00
2009,08,15,02,54,13.00
2009,08,15,02,55,12.90
2009,08,15,02,56,12.90
2009,08,15,02,57,12.90
2009,08,15,02,58,12.90
2009,08,15,02,59,12.80
2009,08,15,03,00,12.80
2009,08,15,03,01,12.80
2009,08,15,03,02,12.80
2009,08,15,03,03,12.80
2009,08,15,03,04,12.80
2009,08,15,03,05,12.80
2009,08,15,03,06,12.80
2009,08,15,03,07,12.80
2009,08,15,03,08,12.80
2009,08,15,03,09,12.80
2009,08,15,03,10,12.80
2009,08,15,03,11,12.80
2009,08,15,03,12,12.80
2009,08,15,03,13,12.80
2009,08,15,03,14,12.80
2009,08,15,03,15,12.80
2009,08,15,03,16,12.80
2009,08,15,03,17,12.80
2009,08,15,03,18,12.80
2009,08,15,03,19,12.80
2009,08,15,03,20,12.80
2009,08,15,03,21,12.70
2009,08,15,03,22,12.70
2009,08,15,03,23,12.70
2009,08,15,03,24,12.70
2009,08,15,03,25,12.70
2009,08,15,03,26,12.60
2009,08,15,03,27,12.60
2009,08,15,03,28,12.60
2009,08,15,03,29,12.60
2009,08,15,03,30,12.60
2009,08,15,03,31,12.60
2009,08,15,03,32,12.50
2009,08,15,03,33,12.50
2009,08,15,03,34,12.50
2009,08,15,03,35,12.50
2009,08,15,03,36,12.50
2009,08,15,03,37,12.50
2009,08,15,03,38,12.50
2009,08,15,03,39,12.40
2009,08,15,03,40,12.40
2009,08,15,03,41,12.40
2009,08,15,03,42,12.30
2009,08,15,03,43,12.30
2009,08,15,03,44,12.30
2009,08,15,03,45,12.20
2009,08,15,03,46,12.20
2009,08,15,03,47,12.10
2009,08,15,03,48,12.10
2009,08,15,03,49,12.00
2009,08,15,03,50,11.90
2009,08,15,03,51,11.90
2009,08,15,03,52,11.80
2009,08,15,03,53,11.80
2009,08,15,03,54,11.80
2009,08,15,03,55,11.70
2009,08,15,03,56,11.70
2009,08,15,03,57,11.60
2009,08,15,03,58,11.60
2009,08,15,03,59,11.60
2009,08,15,04,00,11.60
2009,08,15,04,01,11.50
2009,08,15,04,02,11.40
2009,08,15,04,03,11.40
2009,08,15,04,04,11.40
2009,08,15,04,05,11.40
2009,08,15,04,06,11.40
2009,08,15,04,07,11.40
2009,08,15,04,08,11.40
2009,08,15,04,09,11.40
2009,08,15,04,10,11.40
2009,08,15,04,11,11.40
2009,08,15,04,12,11.40
2009,08,15,04,13,11.40
2009,08,15,04,14,11.40
2009,08,15,04,15,11.40
2009,08,15,04,16,11.40
2009,08,15,04,17,11.40
2009,08,15,04,18,11.40
2009,08,15,04,19,11.40
2009,08,15,04,20,11.40
2009,08,15,04,21,11.40
2009,08,15,04,22,11.40
2009,08,15,04,23,11.40
2009,08,15,04,24,11.40
2009,08,15,04,25,11.40
2009,08,15,04,26,11.40
2009,08,15,04,27,11.40
2009,08,15,04,28,11.40
2009,08,15,04,29,11.40
2009,08,15,04,30,11.40
2009,08,15,04,31,11.40
2009,08,15,04,32,11.40
2009,08,15,04,33,11.40
2009,08,15,04,34,11.40
2009,08,15,04,35,11.40
2009,08,15,04,36,11.40
2009,08,15,04,37,11.40
2009,08,15,04,38,11.40
2009,08,15,04,39,11.40
2009,08,15,04,40,11.40
2009,08,15,04,41,11.40
2009,08,15,04,42,11.40
2009,08,15,04,43,11.40
2009,08,15,04,44,11.40
2009,08,15,04,45,11.40
2009,08,15,04,46,11.40
2009,08,15,04,47,11.40
2009,08,15,04,48,11.40
2009,08,15,04,49,11.40
2009,08,15,04,50,11.40
2009,08,15,04,51,11.40
2009,08,15,04,52,11.40
2009,08,15,04,53,11.40
2009,08,15,04,54,11.40
2009,08,15,04,55,11.40
2009,08,15,04,56,11.40
2009,08,15,04,57,11.40
2009,08,15,04,58,11.40
2009,08,15,04,59,11.40
2009,08,15,05,00,11.40
2009,08,15,05,01,11.40
2009,08,15,05,02,11.40
2009,08,15,05,03,11.40
2009,08,15,05,04,11.40
2009,08,15,05,05,11.40
2009,08,15,05,06,11.40
2009,08,15,05,07,11.40
2009,08,15,05,08,11.50
2009,08,15,05,09,11.60
2009,08,15,05,10,11.50
2009,08,15,05,11,11.50
2009,08,15,05,12,11.40
2009,08,15,05,13,11.40
2009,08,15,05,14,11.40
2009,08,15,05,15,11.40
2009,08,15,05,16,11.40
2009,08,15,05,17,11.40
2009,08,15,05,18,11.40
2009,08,15,05,19,11.40
2009,08,15,05,20,11.40
2009,08,15,05,21,11.40
2009,08,15,05,22,11.40
2009,08,15,05,23,11.40
2009,08,15,05,24,11.40
2009,08,15,05,25,11.40
2009,08,15,05,26,11.40
2009,08,15,05,27,11.40
2009,08,15,05,28,11.40
2009,08,15,05,29,11.40
2009,08,15,05,30,11.40
2009,08,15,05,31,11.40
2009,08,15,05,32,11.40
2009,08,15,05,33,11.40
2009,08,15,05,34,11.40
2009,08,15,05,35,11.40
2009,08,15,05,36,11.40
2009,08,15,05,37,11.40
2009,08,15,05,38,11.40
2009,08,15,05,39,11.40
2009,08,15,05,40,11.40
2009,08,15,05,41,11.40
2009,08,15,05,42,11.40
2009,08,15,05,43,11.40
2009,08,15,05,44,11.40
2009,08,15,05,45,11.40
2009,08,15,05,46,11.40
2009,08,15,05,47,11.40
2009,08,15,05,48,11.40
2009,08,15,05,49,11.40
2009,08,15,05,50,11.40
2009,08,15,05,51,11.40
2009,08,15,05,52,11.40
2009,08,15,05,53,11.30
2009,08,15,05,54,11.30
2009,08,15,05,55,11.30
2009,08,15,05,56,11.30
2009,08,15,05,57,11.30
2009,08,15,05,58,11.30
2009,08,15,05,59,11.30
2009,08,15,06,00,11.30
2009,08,15,06,01,11.30
2009,08,15,06,02,11.20
2009,08,15,06,03,11.20
2009,08,15,06,04,11.20
2009,08,15,06,05,11.20
2009,08,15,06,06,11.20
2009,08,15,06,07,11.20
2009,08,15,06,08,11.20
2009,08,15,06,09,11.20
2009,08,15,06,10,11.20
2009,08,15,06,11,11.20
2009,08,15,06,12,11.20
2009,08,15,06,13,11.20
2009,08,15,06,14,11.20
2009,08,15,06,15,11.20
2009,08,15,06,16,11.20
2009,08,15,06,17,11.20
2009,08,15,06,18,11.20
2009,08,15,06,19,11.10
2009,08,15,06,20,11.10
2009,08,15,06,21,11.10
2009,08,15,06,22,11.10
2009,08,15,06,23,11.10
2009,08,15,06,24,11.10
2009,08,15,06,25,11.20
2009,08,15,06,26,11.20
2009,08,15,06,27,11.20
2009,08,15,06,28,11.20
2009,08,15,06,29,11.20
2009,08,15,06,30,11.20
2009,08,15,06,31,11.20
2009,08,15,06,32,11.20
2009,08,15,06,33,11.30
2009,08,15,06,34,11.30
2009,08,15,06,35,11.30
2009,08,15,06,36,11.30
2009,08,15,06,37,11.30
2009,08,15,06,38,11.30
2009,08,15,06,39,11.40
2009,08,15,06,40,11.40
2009,08,15,06,41,11.40
2009,08,15,06,42,11.40
2009,08,15,06,43,11.40
2009,08,15,06,44,11.40
2009,08,15,06,45,11.50
2009,08,15,06,46,11.60
2009,08,15,06,47,11.60
2009,08,15,06,48,11.60
2009,08,15,06,49,11.60
2009,08,15,06,50,11.60
2009,08,15,06,51,11.60
2009,08,15,06,52,11.70
2009,08,15,06,53,11.70
2009,08,15,06,54,11.70
2009,08,15,06,55,11.80
2009,08,15,06,56,11.80
2009,08,15,06,57,11.80
2009,08,15,06,58,11.80
2009,08,15,06,59,11.80
2009,08,15,07,00,11.80
2009,08,15,07,01,11.80
2009,08,15,07,02,11.80
2009,08,15,07,03,11.90
2009,08,15,07,04,11.90
2009,08,15,07,05,11.90
2009,08,15,07,06,11.90
2009,08,15,07,07,12.00
2009,08,15,07,08,12.00
2009,08,15,07,09,12.00
2009,08,15,07,10,12.00
2009,08,15,07,11,12.00
2009,08,15,07,12,12.00
2009,08,15,07,13,12.00
2009,08,15,07,14,12.10
2009,08,15,07,15,12.10
2009,08,15,07,16,12.10
2009,08,15,07,17,12.10
2009,08,15,07,18,12.10
2009,08,15,07,19,12.20
2009,08,15,07,20,12.20
2009,08,15,07,21,12.20
2009,08,15,07,22,12.20
2009,08,15,07,23,12.20
2009,08,15,07,24,12.20
2009,08,15,07,25,12.20
2009,08,15,07,26,12.20
2009,08,15,07,27,12.20
2009,08,15,07,28,12.20
2009,08,15,07,29,12.20
2009,08,15,07,30,12.20
2009,08,15,07,31,12.20
2009,08,15,07,32,12.30
2009,08,15,07,33,12.30
2009,08,15,07,34,12.30
2009,08,15,07,35,12.30
2009,08,15,07,36,12.30
2009,08,15,07,37,12.30
2009,08,15,07,38,12.30
2009,08,15,07,39,12.30
2009,08,15,07,40,12.30
2009,08,15,07,41,12.30
2009,08,15,07,42,12.30
2009,08,15,07,43,12.30
2009,08,15,07,44,12.30
2009,08,15,07,45,12.30
2009,08,15,07,46,12.30
2009,08,15,07,47,12.30
2009,08,15,07,48,12.30
2009,08,15,07,49,12.30
2009,08,15,07,50,12.30
2009,08,15,07,51,12.30
2009,08,15,07,52,12.20
2009,08,15,07,53,12.20
2009,08,15,07,54,12.20
2009,08,15,07,55,12.20
2009,08,15,07,56,12.20
2009,08,15,07,57,12.20
2009,08,15,07,58,12.20
2009,08,15,07,59,12.20
2009,08,15,08,00,12.20
2009,08,15,08,01,12.20
2009,08,15,08,02,12.20
2009,08,15,08,03,12.20
2009,08,15,08,04,12.20
2009,08,15,08,05,12.20
2009,08,15,08,06,12.20
2009,08,15,08,07,12.20
2009,08,15,08,08,12.20
2009,08,15,08,09,12.20
2009,08,15,08,10,12.20
2009,08,15,08,11,12.20
2009,08,15,08,12,12.30
2009,08,15,08,13,12.30
2009,08,15,08,14,12.30
2009,08,15,08,15,12.30
2009,08,15,08,16,12.30
2009,08,15,08,17,12.30
2009,08,15,08,18,12.30
2009,08,15,08,19,12.30
2009,08,15,08,20,12.30
2009,08,15,08,21,12.30
2009,08,15,08,22,12.40
2009,08,15,08,23,12.40
2009,08,15,08,24,12.40
2009,08,15,08,25,12.40
2009,08,15,08,26,12.40
2009,08,15,08,27,12.40
2009,08,15,08,28,12.40
2009,08,15,08,29,12.40
2009,08,15,08,30,12.50
2009,08,15,08,31,12.50
2009,08,15,08,32,12.50
2009,08,15,08,33,12.50
2009,08,15,08,34,12.50
2009,08,15,08,35,12.50
2009,08,15,08,36,12.50
2009,08,15,08,37,12.50
2009,08,15,08,38,12.60
2009,08,15,08,39,12.60
2009,08,15,08,40,12.60
2009,08,15,08,41,12.60
2009,08,15,08,42,12.70
2009,08,15,08,43,12.70
2009,08,15,08,44,12.70
2009,08,15,08,45,12.70
2009,08,15,08,46,12.80
2009,08,15,08,47,12.80
2009,08,15,08,48,12.80
2009,08,15,08,49,12.80
2009,08,15,08,50,12.80
2009,08,15,08,51,12.80
2009,08,15,08,52,12.80
2009,08,15,08,53,12.80
2009,08,15,08,54,12.80
2009,08,15,08,55,12.80
2009,08,15,08,56,12.80
2009,08,15,08,57,12.80
2009,08,15,08,58,12.80
2009,08,15,08,59,12.90
2009,08,15,09,00,12.90
2009,08,15,09,01,12.90
2009,08,15,09,02,12.90
2009,08,15,09,03,12.90
2009,08,15,09,04,13.00
2009,08,15,09,05,13.00
2009,08,15,09,06,13.00
2009,08,15,09,07,13.00
2009,08,15,09,08,13.00
2009,08,15,09,09,13.00
2009,08,15,09,10,13.00
2009,08,15,09,11,13.10
2009,08,15,09,12,13.10
2009,08,15,09,13,13.20
2009,08,15,09,14,13.20
2009,08,15,09,15,13.10
2009,08,15,09,16,13.10
2009,08,15,09,17,13.10
2009,08,15,09,18,13.10
2009,08,15,09,19,13.10
2009,08,15,09,20,13.10
2009,08,15,09,21,13.10
2009,08,15,09,22,13.10
2009,08,15,09,23,13.10
2009,08,15,09,24,13.20
2009,08,15,09,25,13.20
2009,08,15,09,26,13.20
2009,08,15,09,27,13.20
2009,08,15,09,28,13.20
2009,08,15,09,29,13.20
2009,08,15,09,30,13.20
2009,08,15,09,31,13.30
2009,08,15,09,32,13.30
2009,08,15,09,33,13.30
2009,08,15,09,34,13.30
2009,08,15,09,35,13.30
2009,08,15,09,36,13.30
2009,08,15,09,37,13.40
2009,08,15,09,38,13.40
2009,08,15,09,39,13.40
2009,08,15,09,40,13.40
2009,08,15,09,41,13.50
2009,08,15,09,42,13.50
2009,08,15,09,43,13.60
2009,08,15,09,44,13.60
2009,08,15,09,45,13.60
2009,08,15,09,46,13.60
2009,08,15,09,47,13.60
2009,08,15,09,48,13.60
2009,08,15,09,49,13.60
2009,08,15,09,50,13.60
2009,08,15,09,51,13.70
2009,08,15,09,52,13.70
2009,08,15,09,53,13.70
2009,08,15,09,54,13.70
2009,08,15,09,55,13.70
2009,08,15,09,56,13.70
2009,08,15,09,57,13.70
2009,08,15,09,58,13.80
2009,08,15,09,59,13.80
2009,08,15,10,00,13.70
2009,08,15,10,01,13.70
2009,08,15,10,02,13.70
2009,08,15,10,03,13.70
2009,08,15,10,04,13.70
2009,08,15,10,05,13.70
2009,08,15,10,06,13.70
2009,08,15,10,07,13.70
2009,08,15,10,08,13.70
2009,08,15,10,09,13.70
2009,08,15,10,10,13.80
2009,08,15,10,11,13.90
2009,08,15,10,12,13.90
2009,08,15,10,13,14.00
2009,08,15,10,14,14.00
2009,08,15,10,15,14.10
2009,08,15,10,16,14.10
2009,08,15,10,17,14.20
2009,08,15,10,18,14.20
2009,08,15,10,19,14.20
2009,08,15,10,20,14.10
2009,08,15,10,21,14.00
2009,08,15,10,22,13.90
2009,08,15,10,23,13.90
2009,08,15,10,24,13.90
2009,08,15,10,25,13.90
2009,08,15,10,26,14.00
2009,08,15,10,27,14.10
2009,08,15,10,28,14.20
2009,08,15,10,29,14.20
2009,08,15,10,30,14.30
2009,08,15,10,31,14.40
2009,08,15,10,32,14.40
2009,08,15,10,33,14.40
2009,08,15,10,34,14.50
2009,08,15,10,35,14.50
2009,08,15,10,36,14.50
2009,08,15,10,37,14.50
2009,08,15,10,38,14.60
2009,08,15,10,39,14.60
2009,08,15,10,40,14.70
2009,08,15,10,41,14.80
2009,08,15,10,42,14.80
2009,08,15,10,43,14.80
2009,08,15,10,44,14.70
2009,08,15,10,45,14.60
2009,08,15,10,46,14.60
2009,08,15,10,47,14.60
2009,08,15,10,48,14.60
2009,08,15,10,49,14.60
2009,08,15,10,50,14.60
2009,08,15,10,51,14.70
2009,08,15,10,52,14.70
2009,08,15,10,53,14.80
2009,08,15,10,54,14.80
2009,08,15,10,55,14.90
2009,08,15,10,56,14.90
2009,08,15,10,57,15.00
2009,08,15,10,58,15.00
2009,08,15,10,59,15.00
2009,08,15,11,00,15.10
2009,08,15,11,01,15.10
2009,08,15,11,02,15.10
2009,08,15,11,03,15.20
2009,08,15,11,04,15.20
2009,08,15,11,05,15.20
2009,08,15,11,06,15.20
2009,08,15,11,07,15.20
2009,08,15,11,08,15.20
2009,08,15,11,09,15.20
2009,08,15,11,10,15.20
2009,08,15,11,11,15.30
2009,08,15,11,12,15.30
2009,08,15,11,13,15.30
2009,08,15,11,14,15.30
2009,08,15,11,15,15.30
2009,08,15,11,16,15.30
2009,08,15,11,17,15.30
2009,08,15,11,18,15.30
2009,08,15,11,19,15.50
2009,08,15,11,20,15.60
2009,08,15,11,21,15.70
2009,08,15,11,22,15.70
2009,08,15,11,23,15.80
2009,08,15,11,24,15.80
2009,08,15,11,25,15.70
2009,08,15,11,26,15.70
2009,08,15,11,27,15.80
2009,08,15,11,28,15.80
2009,08,15,11,29,15.70
2009,08,15,11,30,15.60
2009,08,15,11,31,15.50
2009,08,15,11,32,15.40
2009,08,15,11,33,15.30
2009,08,15,11,34,15.20
2009,08,15,11,35,15.10
2009,08,15,11,36,15.10
2009,08,15,11,37,15.00
2009,08,15,11,38,15.10
2009,08,15,11,39,15.20
2009,08,15,11,40,15.30
2009,08,15,11,41,15.30
2009,08,15,11,42,15.20
2009,08,15,11,43,15.10
2009,08,15,11,44,15.00
2009,08,15,11,45,15.00
2009,08,15,11,46,14.90
2009,08,15,11,47,14.80
2009,08,15,11,48,14.80
2009,08,15,11,49,14.80
2009,08,15,11,50,14.80
2009,08,15,11,51,14.90
2009,08,15,11,52,15.00
2009,08,15,11,53,15.10
2009,08,15,11,54,15.30
2009,08,15,11,55,15.30
2009,08,15,11,56,15.50
2009,08,15,11,57,15.50
2009,08,15,11,58,15.60
2009,08,15,11,59,15.50
2009,08,15,12,00,15.30
2009,08,15,12,01,15.30
2009,08,15,12,02,15.30
2009,08,15,12,03,15.30
2009,08,15,12,04,15.30
2009,08,15,12,05,15.30
2009,08,15,12,06,15.30
2009,08,15,12,07,15.20
2009,08,15,12,08,15.20
2009,08,15,12,09,15.20
2009,08,15,12,10,15.20
2009,08,15,12,11,15.30
2009,08,15,12,12,15.40
2009,08,15,12,13,15.40
2009,08,15,12,14,15.40
2009,08,15,12,15,15.50
2009,08,15,12,16,15.50
2009,08,15,12,17,15.40
2009,08,15,12,18,15.40
2009,08,15,12,19,15.40
2009,08,15,12,20,15.50
2009,08,15,12,21,15.50
2009,08,15,12,22,15.60
2009,08,15,12,23,15.70
2009,08,15,12,24,15.70
2009,08,15,12,25,15.70
2009,08,15,12,26,15.80
2009,08,15,12,27,15.80
2009,08,15,12,28,15.80
2009,08,15,12,29,15.80
2009,08,15,12,30,15.80
2009,08,15,12,31,15.80
2009,08,15,12,32,15.80
2009,08,15,12,33,15.60
2009,08,15,12,34,15.50
2009,08,15,12,35,15.40
2009,08,15,12,36,15.50
2009,08,15,12,37,15.60
2009,08,15,12,38,15.70
2009,08,15,12,39,15.80
2009,08,15,12,40,15.80
2009,08,15,12,41,15.80
2009,08,15,12,42,15.80
2009,08,15,12,43,15.90
2009,08,15,12,44,16.00
2009,08,15,12,45,16.10
2009,08,15,12,46,16.20
2009,08,15,12,47,16.40
2009,08,15,12,48,16.50
2009,08,15,12,49,16.60
2009,08,15,12,50,16.50
2009,08,15,12,51,16.40
2009,08,15,12,52,16.40
2009,08,15,12,53,16.40
2009,08,15,12,54,16.30
2009,08,15,12,55,16.30
2009,08,15,12,56,16.20
2009,08,15,12,57,16.10
2009,08,15,12,58,16.00
2009,08,15,12,59,15.90
2009,08,15,13,00,15.80
2009,08,15,13,01,15.80
2009,08,15,13,02,15.90
2009,08,15,13,03,15.90
2009,08,15,13,04,16.00
2009,08,15,13,05,16.10
2009,08,15,13,06,16.10
2009,08,15,13,07,16.10
2009,08,15,13,08,16.20
2009,08,15,13,09,16.30
2009,08,15,13,10,16.20
2009,08,15,13,11,16.10
2009,08,15,13,12,16.10
2009,08,15,13,13,16.20
2009,08,15,13,14,16.20
2009,08,15,13,15,16.20
2009,08,15,13,16,16.20
2009,08,15,13,17,16.30
2009,08,15,13,18,16.30
2009,08,15,13,19,16.30
2009,08,15,13,20,16.30
2009,08,15,13,21,16.20
2009,08,15,13,22,16.10
2009,08,15,13,23,16.10
2009,08,15,13,24,16.10
2009,08,15,13,25,16.20
2009,08,15,13,26,16.10
2009,08,15,13,27,16.00
2009,08,15,13,28,15.90
2009,08,15,13,29,15.80
2009,08,15,13,30,15.80
2009,08,15,13,31,15.80
2009,08,15,13,32,15.90
2009,08,15,13,33,15.80
2009,08,15,13,34,15.90
2009,08,15,13,35,16.00
2009,08,15,13,36,16.10
2009,08,15,13,37,16.20
2009,08,15,13,38,16.30
2009,08,15,13,39,16.20
2009,08,15,13,40,16.00
2009,08,15,13,41,15.90
2009,08,15,13,42,15.90
2009,08,15,13,43,15.90
2009,08,15,13,44,15.90
2009,08,15,13,45,15.90
2009,08,15,13,46,15.90
2009,08,15,13,47,16.10
2009,08,15,13,48,16.10
2009,08,15,13,49,16.20
2009,08,15,13,50,16.30
2009,08,15,13,51,16.30
2009,08,15,13,52,16.40
2009,08,15,13,53,16.40
2009,08,15,13,54,16.50
2009,08,15,13,55,16.60
2009,08,15,13,56,16.40
2009,08,15,13,57,16.40
2009,08,15,13,58,16.40
2009,08,15,13,59,16.50
2009,08,15,14,00,16.60
2009,08,15,14,01,16.70
2009,08,15,14,02,16.70
2009,08,15,14,03,16.60
2009,08,15,14,04,16.60
2009,08,15,14,05,16.70
2009,08,15,14,06,16.70
2009,08,15,14,07,16.80
2009,08,15,14,08,16.80
2009,08,15,14,09,16.90
2009,08,15,14,10,16.90
2009,08,15,14,11,17.00
2009,08,15,14,12,16.90
2009,08,15,14,13,16.80
2009,08,15,14,14,16.70
2009,08,15,14,15,16.70
2009,08,15,14,16,16.70
2009,08,15,14,17,16.70
2009,08,15,14,18,16.70
2009,08,15,14,19,16.70
2009,08,15,14,20,16.70
2009,08,15,14,21,16.70
2009,08,15,14,22,16.70
2009,08,15,14,23,16.80
2009,08,15,14,24,16.90
2009,08,15,14,25,16.90
2009,08,15,14,26,16.80
2009,08,15,14,27,16.70
2009,08,15,14,28,16.50
2009,08,15,14,29,16.40
2009,08,15,14,30,16.40
2009,08,15,14,31,16.60
2009,08,15,14,32,16.70
2009,08,15,14,33,16.70
2009,08,15,14,34,16.80
2009,08,15,14,35,16.90
2009,08,15,14,36,17.00
2009,08,15,14,37,16.90
2009,08,15,14,38,16.90
2009,08,15,14,39,16.90
2009,08,15,14,40,17.00
2009,08,15,14,41,17.00
2009,08,15,14,42,17.00
2009,08,15,14,43,17.00
2009,08,15,14,44,16.90
2009,08,15,14,45,16.90
2009,08,15,14,46,16.80
2009,08,15,14,47,16.90
2009,08,15,14,48,17.00
2009,08,15,14,49,17.00
2009,08,15,14,50,17.00
2009,08,15,14,51,17.10
2009,08,15,14,52,17.30
2009,08,15,14,53,17.40
2009,08,15,14,54,17.60
2009,08,15,14,55,17.70
2009,08,15,14,56,17.70
2009,08,15,14,57,17.80
2009,08,15,14,58,17.90
2009,08,15,14,59,17.90
2009,08,15,15,00,17.90
2009,08,15,15,01,17.90
2009,08,15,15,02,17.80
2009,08,15,15,03,17.70
2009,08,15,15,04,17.70
2009,08,15,15,05,17.80
2009,08,15,15,06,17.80
2009,08,15,15,07,17.90
2009,08,15,15,08,17.90
2009,08,15,15,09,18.00
2009,08,15,15,10,18.10
2009,08,15,15,11,18.00
2009,08,15,15,12,17.90
2009,08,15,15,13,17.80
2009,08,15,15,14,17.80
2009,08,15,15,15,17.80
2009,08,15,15,16,17.90
2009,08,15,15,17,17.80
2009,08,15,15,18,17.80
2009,08,15,15,19,17.90
2009,08,15,15,20,17.90
2009,08,15,15,21,18.00
2009,08,15,15,22,18.20
2009,08,15,15,23,18.20
2009,08,15,15,24,18.20
2009,08,15,15,25,18.20
2009,08,15,15,26,18.10
2009,08,15,15,27,18.00
2009,08,15,15,28,17.90
2009,08,15,15,29,17.90
2009,08,15,15,30,17.90
2009,08,15,15,31,18.10
2009,08,15,15,32,18.20
2009,08,15,15,33,18.40
2009,08,15,15,34,18.50
2009,08,15,15,35,18.60
2009,08,15,15,36,18.70
2009,08,15,15,37,18.70
2009,08,15,15,38,18.60
2009,08,15,15,39,18.50
2009,08,15,15,40,18.50
2009,08,15,15,41,18.50
2009,08,15,15,42,18.60
2009,08,15,15,43,18.70
2009,08,15,15,44,18.60
2009,08,15,15,45,18.60
2009,08,15,15,46,18.60
2009,08,15,15,47,18.60
2009,08,15,15,48,18.60
2009,08,15,15,49,18.60
2009,08,15,15,50,18.60
2009,08,15,15,51,18.50
2009,08,15,15,52,18.20
2009,08,15,15,53,18.20
2009,08,15,15,54,18.20
2009,08,15,15,55,18.20
2009,08,15,15,56,18.20
2009,08,15,15,57,18.20
2009,08,15,15,58,18.20
2009,08,15,15,59,18.40
2009,08,15,16,00,18.40
2009,08,15,16,01,18.50
2009,08,15,16,02,18.50
2009,08,15,16,03,18.60
2009,08,15,16,04,18.60
2009,08,15,16,05,18.80
2009,08,15,16,06,18.80
2009,08,15,16,07,18.80
2009,08,15,16,08,18.70
2009,08,15,16,09,18.70
2009,08,15,16,10,18.60
2009,08,15,16,11,18.60
2009,08,15,16,12,18.60
2009,08,15,16,13,18.70
2009,08,15,16,14,18.70
2009,08,15,16,15,18.60
2009,08,15,16,16,18.60
2009,08,15,16,17,18.50
2009,08,15,16,18,18.40
2009,08,15,16,19,18.30
2009,08,15,16,20,18.20
2009,08,15,16,21,18.20
2009,08,15,16,22,18.20
2009,08,15,16,23,18.20
2009,08,15,16,24,18.30
2009,08,15,16,25,18.40
2009,08,15,16,26,18.40
2009,08,15,16,27,18.50
2009,08,15,16,28,18.50
2009,08,15,16,29,18.50
2009,08,15,16,30,18.50
2009,08,15,16,31,18.40
2009,08,15,16,32,18.40
2009,08,15,16,33,18.40
2009,08,15,16,34,18.40
2009,08,15,16,35,18.40
2009,08,15,16,36,18.50
2009,08,15,16,37,18.30
2009,08,15,16,38,18.20
2009,08,15,16,39,18.00
2009,08,15,16,40,17.90
2009,08,15,16,41,17.80
2009,08,15,16,42,17.70
2009,08,15,16,43,17.60
2009,08,15,16,44,17.50
2009,08,15,16,45,17.50
2009,08,15,16,46,17.50
2009,08,15,16,47,17.60
2009,08,15,16,48,17.60
2009,08,15,16,49,17.60
2009,08,15,16,50,17.50
2009,08,15,16,51,17.50
2009,08,15,16,52,17.50
2009,08,15,16,53,17.50
2009,08,15,16,54,17.50
2009,08,15,16,55,17.60
2009,08,15,16,56,17.50
2009,08,15,16,57,17.50
2009,08,15,16,58,17.30
2009,08,15,16,59,17.30
2009,08,15,17,00,17.30
2009,08,15,17,01,17.30
2009,08,15,17,02,17.30
2009,08,15,17,03,17.30
2009,08,15,17,04,17.30
2009,08,15,17,05,17.30
2009,08,15,17,06,17.30
2009,08,15,17,07,17.30
2009,08,15,17,08,17.30
2009,08,15,17,09,17.30
2009,08,15,17,10,17.30
2009,08,15,17,11,17.30
2009,08,15,17,12,17.30
2009,08,15,17,13,17.20
2009,08,15,17,14,17.10
2009,08,15,17,15,17.00
2009,08,15,17,16,16.90
2009,08,15,17,17,16.90
2009,08,15,17,18,16.80
2009,08,15,17,19,16.80